カタログに戻る

DELTA 1 R/B

運用中SSO
NORAD 3036·ROCKET BODY·🇺🇸 United States

打ち上げ Nov 10, 1967 から Vandenberg Space Force Base

Loading…

次のパス (今後24時間)

TLE

最新Source: Space-Track

元期: Sep 14, 2026, 13:13 UTC

1  3036U 67114B   26257.55125669 -.00000023  00000-0  14725-3 0  9990
2  3036 102.0166 359.8264 0047824 328.5389  41.4075 12.54140384693551

AllMySatでDELTA 1 R/Bをリアルタイム追跡

Download on the App Store